{"data":{"norad_id":64420,"intl_designator":"2025-129J","name":"STARLINK-34503","alt_names":[],"object_type":"PAYLOAD","status":"ACTIVE","operator":null,"country":"US","launch_date":"2025-06-17","launch_site_code":"AFWTR","launch_vehicle":null,"mission":null,"orbit_class":"UNKNOWN","rcs_meters":null,"size_class":null,"mass_kg":null,"dimensions":null,"purposes":["comms"],"wikipedia_slug":null,"has_3d_model":false,"image_url":null,"decayed_at":null,"tle_current":{"epoch":"2026-09-20T12:50:36.647232Z","epoch_age_seconds":131576,"freshness":"FRESH","line1":"1 64420U 25129J   26263.53514638  .00003668  00000+0  13199-3 0  9997","line2":"2 64420  70.0006 300.7722 0003385 271.3158  88.7629 15.29580839 70476","mean_motion":15.29580839,"eccentricity":0.0003385,"inclination_deg":70.0006,"raan_deg":300.7722,"arg_perigee_deg":271.3158,"mean_anomaly_deg":88.7629,"bstar":0.00013199,"rev_number":7047,"period_min":94.143438730668,"perigee_km":474.74391047594,"apogee_km":479.38488182114,"semimajor_km":6855.2013961485,"source":"CELESTRAK","updated_at":"2026-09-21T09:00:35.347427Z"}}}